owner,sensor,date,latitude,longitude,vertical_datum,wind_speed,wind_to_direction,wind_speed_of_gust,qcFlag 
DISL,ioos:station:DISL:DISL:1,2017-05-01T00:00:00Z,30.2513,-88.0778,9.68,2.71,70.82,-999.0,'1111122,1111122,1111122' 
DISL,ioos:station:DISL:DISL:1,2017-05-01T00:30:00Z,30.2513,-88.0778,9.68,3.83,82.4,-999.0,'1111122,1111122,1111122' 
DISL,ioos:station:DISL:DISL:1,2017-05-01T01:00:00Z,30.2513,-88.0778,9.68,6.31,74.49,-999.0,'1111122,1111122,1111122' 
DISL,ioos:station:DISL:DISL:1,2017-05-01T01:30:00Z,30.2513,-88.0778,9.68,4.77,106.6,-999.0,'1111122,1111122,1111122' 
DISL,ioos:station:DISL:DISL:1,2017-05-01T02:00:00Z,30.2513,-88.0778,9.68,4.77,136.5,-999.0,'1111122,1111122,1111122' 
DISL,ioos:station:DISL:DISL:1,2017-05-01T02:30:00Z,30.2513,-88.0778,9.68,11.94,104.1,-999.0,'1111122,1111122,1111122' 
DISL,ioos:station:DISL:DISL:1,2017-05-01T03:00:00Z,30.2513,-88.0778,9.68,9.57,139.1,-999.0,'1111122,1111122,1111122' 
DISL,ioos:station:DISL:DISL:1,2017-05-01T03:30:00Z,30.2513,-88.0778,9.68,10.08,134.7,-999.0,'1111122,1111122,1111122' 
DISL,ioos:station:DISL:DISL:1,2017-05-01T04:00:00Z,30.2513,-88.0778,9.68,9.48,132.9,-999.0,'1111122,1111122,1111122' 
DISL,ioos:station:DISL:DISL:1,2017-05-01T04:30:00Z,30.2513,-88.0778,9.68,9.96,149.9,-999.0,'1111122,1111122,1111122' 
DISL,ioos:station:DISL:DISL:1,2017-05-01T05:30:00Z,30.2513,-88.0778,9.68,9.75,164.1,-999.0,'1111122,1111122,1111122' 
DISL,ioos:station:DISL:DISL:1,2017-05-01T06:00:00Z,30.2513,-88.0778,9.68,10.08,168.4,-999.0,'1111122,1111122,1111122' 
DISL,ioos:station:DISL:DISL:1,2017-05-01T06:30:00Z,30.2513,-88.0778,9.68,8.51,152.1,-999.0,'1111122,1111122,1111122' 
DISL,ioos:station:DISL:DISL:1,2017-05-01T07:00:00Z,30.2513,-88.0778,9.68,11.63,141.0,-999.0,'1111122,1111122,1111122' 
DISL,ioos:station:DISL:DISL:1,2017-05-01T07:30:00Z,30.2513,-88.0778,9.68,6.91,175.6,-999.0,'1111122,1111122,1111122' 
DISL,ioos:station:DISL:DISL:1,2017-05-01T08:00:00Z,30.2513,-88.0778,9.68,6.61,185.9,-999.0,'1111122,1111122,1111122' 
DISL,ioos:station:DISL:DISL:1,2017-05-01T08:30:00Z,30.2513,-88.0778,9.68,5.91,250.4,-999.0,'1111122,1111122,1111122' 
DISL,ioos:station:DISL:DISL:1,2017-05-01T09:00:00Z,30.2513,-88.0778,9.68,9.58,317.1,-999.0,'1111122,1111122,1111122' 
DISL,ioos:station:DISL:DISL:1,2017-05-01T09:30:00Z,30.2513,-88.0778,9.68,8.75,320.4,-999.0,'1111122,1111122,1111122' 
DISL,ioos:station:DISL:DISL:1,2017-05-01T10:00:00Z,30.2513,-88.0778,9.68,8.56,338.6,-999.0,'1111122,1111122,1111122' 
DISL,ioos:station:DISL:DISL:1,2017-05-01T10:30:00Z,30.2513,-88.0778,9.68,7.67,338.5,-999.0,'1111122,1111122,1111122' 
DISL,ioos:station:DISL:DISL:1,2017-05-01T11:00:00Z,30.2513,-88.0778,9.68,5.8,353.6,-999.0,'1111122,1111122,1111122' 
DISL,ioos:station:DISL:DISL:1,2017-05-01T11:30:00Z,30.2513,-88.0778,9.68,7.25,352.5,-999.0,'1111122,1111122,1111122' 
DISL,ioos:station:DISL:DISL:1,2017-05-01T12:00:00Z,30.2513,-88.0778,9.68,7.95,341.3,-999.0,'1111122,1111122,1111122' 
DISL,ioos:station:DISL:DISL:1,2017-05-01T12:30:00Z,30.2513,-88.0778,9.68,7.16,338.0,-999.0,'1111122,1111122,1111122' 
DISL,ioos:station:DISL:DISL:1,2017-05-01T13:00:00Z,30.2513,-88.0778,9.68,7.28,335.9,-999.0,'1111122,1111122,1111122' 
DISL,ioos:station:DISL:DISL:1,2017-05-01T13:30:00Z,30.2513,-88.0778,9.68,7.41,332.3,-999.0,'1111122,1111122,1111122' 
DISL,ioos:station:DISL:DISL:1,2017-05-01T14:00:00Z,30.2513,-88.0778,9.68,7.21,332.8,-999.0,'1111122,1111122,1111122' 
DISL,ioos:station:DISL:DISL:1,2017-05-01T14:30:00Z,30.2513,-88.0778,9.68,5.21,344.0,-999.0,'1111122,1111122,1111122' 
DISL,ioos:station:DISL:DISL:1,2017-05-01T15:00:00Z,30.2513,-88.0778,9.68,4.66,344.2,-999.0,'1111122,1111122,1111122' 
DISL,ioos:station:DISL:DISL:1,2017-05-01T15:30:00Z,30.2513,-88.0778,9.68,4.44,351.6,-999.0,'1111122,1111122,1111122' 
DISL,ioos:station:DISL:DISL:1,2017-05-01T16:00:00Z,30.2513,-88.0778,9.68,3.85,352.2,-999.0,'1111122,1111122,1111122' 
DISL,ioos:station:DISL:DISL:1,2017-05-01T16:30:00Z,30.2513,-88.0778,9.68,4.36,334.6,-999.0,'1111122,1111122,1111122' 
DISL,ioos:station:DISL:DISL:1,2017-05-01T17:00:00Z,30.2513,-88.0778,9.68,1.56,346.0,-999.0,'1111122,1111122,1111122' 
DISL,ioos:station:DISL:DISL:1,2017-05-01T17:30:00Z,30.2513,-88.0778,9.68,1.39,75.98,-999.0,'1111122,1111122,1111122' 
DISL,ioos:station:DISL:DISL:1,2017-05-01T18:00:00Z,30.2513,-88.0778,9.68,1.96,126.3,-999.0,'1111122,1111122,1111122' 
DISL,ioos:station:DISL:DISL:1,2017-05-01T18:30:00Z,30.2513,-88.0778,9.68,2.12,112.2,-999.0,'1111122,1111122,1111122' 
DISL,ioos:station:DISL:DISL:1,2017-05-01T19:00:00Z,30.2513,-88.0778,9.68,3.1,123.0,-999.0,'1111122,1111122,1111122' 
DISL,ioos:station:DISL:DISL:1,2017-05-01T19:30:00Z,30.2513,-88.0778,9.68,2.65,135.9,-999.0,'1111122,1111122,1111122' 
DISL,ioos:station:DISL:DISL:1,2017-05-01T20:00:00Z,30.2513,-88.0778,9.68,2.59,163.4,-999.0,'1111122,1111122,1111122' 
DISL,ioos:station:DISL:DISL:1,2017-05-01T20:30:00Z,30.2513,-88.0778,9.68,3.2,179.3,-999.0,'1111122,1111122,1111122' 
DISL,ioos:station:DISL:DISL:1,2017-05-01T21:00:00Z,30.2513,-88.0778,9.68,2.45,183.8,-999.0,'1111122,1111122,1111122' 
DISL,ioos:station:DISL:DISL:1,2017-05-01T21:30:00Z,30.2513,-88.0778,9.68,2.51,218.3,-999.0,'1111122,1111122,1111122' 
DISL,ioos:station:DISL:DISL:1,2017-05-01T22:00:00Z,30.2513,-88.0778,9.68,2.9,222.3,-999.0,'1111122,1111122,1111122' 
DISL,ioos:station:DISL:DISL:1,2017-05-01T22:30:00Z,30.2513,-88.0778,9.68,2.57,247.0,-999.0,'1111122,1111122,1111122' 
DISL,ioos:station:DISL:DISL:1,2017-05-01T23:00:00Z,30.2513,-88.0778,9.68,3.43,268.1,-999.0,'1111122,1111122,1111122' 
DISL,ioos:station:DISL:DISL:1,2017-05-01T23:30:00Z,30.2513,-88.0778,9.68,2.31,262.1,-999.0,'1111122,1111122,1111122' 
DISL,ioos:station:DISL:DISL:1,2017-05-02T00:00:00Z,30.2513,-88.0778,9.68,1.64,259.3,-999.0,'1111122,1111122,1111122' 
DISL,ioos:station:DISL:DISL:1,2017-05-02T00:30:00Z,30.2513,-88.0778,9.68,2.05,251.2,-999.0,'1111122,1111122,1111122' 
DISL,ioos:station:DISL:DISL:1,2017-05-02T01:00:00Z,30.2513,-88.0778,9.68,2.12,261.2,-999.0,'1111122,1111122,1111122' 
DISL,ioos:station:DISL:DISL:1,2017-05-02T01:30:00Z,30.2513,-88.0778,9.68,2.72,265.4,-999.0,'1111122,1111122,1111122' 
DISL,ioos:station:DISL:DISL:1,2017-05-02T02:00:00Z,30.2513,-88.0778,9.68,2.53,267.4,-999.0,'1111122,1111122,1111122' 
DISL,ioos:station:DISL:DISL:1,2017-05-02T02:30:00Z,30.2513,-88.0778,9.68,3.09,268.3,-999.0,'1111122,1111122,1111122' 
DISL,ioos:station:DISL:DISL:1,2017-05-02T03:00:00Z,30.2513,-88.0778,9.68,2.87,269.6,-999.0,'1111122,1111122,1111122' 
DISL,ioos:station:DISL:DISL:1,2017-05-02T03:30:00Z,30.2513,-88.0778,9.68,2.2,256.6,-999.0,'1111122,1111122,1111122' 
DISL,ioos:station:DISL:DISL:1,2017-05-02T04:00:00Z,30.2513,-88.0778,9.68,2.04,256.4,-999.0,'1111122,1111122,1111122' 
DISL,ioos:station:DISL:DISL:1,2017-05-02T04:30:00Z,30.2513,-88.0778,9.68,2.03,259.4,-999.0,'1111122,1111122,1111122' 
DISL,ioos:station:DISL:DISL:1,2017-05-02T05:00:00Z,30.2513,-88.0778,9.68,1.89,245.1,-999.0,'1111122,1111122,1111122' 
DISL,ioos:station:DISL:DISL:1,2017-05-02T05:30:00Z,30.2513,-88.0778,9.68,1.64,264.9,-999.0,'1111122,1111122,1111122' 
DISL,ioos:station:DISL:DISL:1,2017-05-02T06:00:00Z,30.2513,-88.0778,9.68,1.28,264.8,-999.0,'1111122,1111122,1111122' 
DISL,ioos:station:DISL:DISL:1,2017-05-02T06:30:00Z,30.2513,-88.0778,9.68,1.22,247.0,-999.0,'1111122,1111122,1111122' 
DISL,ioos:station:DISL:DISL:1,2017-05-02T07:00:00Z,30.2513,-88.0778,9.68,1.03,274.7,-999.0,'1111122,1111122,1111122' 
DISL,ioos:station:DISL:DISL:1,2017-05-02T07:30:00Z,30.2513,-88.0778,9.68,1.14,296.7,-999.0,'1111122,1111122,1111122' 
DISL,ioos:station:DISL:DISL:1,2017-05-02T08:00:00Z,30.2513,-88.0778,9.68,0.94,313.6,-999.0,'1111122,1111122,1111122' 
DISL,ioos:station:DISL:DISL:1,2017-05-02T08:30:00Z,30.2513,-88.0778,9.68,1.84,293.4,-999.0,'1111122,1111122,1111122' 
DISL,ioos:station:DISL:DISL:1,2017-05-02T09:00:00Z,30.2513,-88.0778,9.68,2.4,342.8,-999.0,'1111122,1111122,1111122' 
DISL,ioos:station:DISL:DISL:1,2017-05-02T09:30:00Z,30.2513,-88.0778,9.68,1.45,329.4,-999.0,'1111122,1111122,1111122' 
DISL,ioos:station:DISL:DISL:1,2017-05-02T10:00:00Z,30.2513,-88.0778,9.68,2.81,17.5,-999.0,'1111122,1111122,1111122' 
DISL,ioos:station:DISL:DISL:1,2017-05-02T10:30:00Z,30.2513,-88.0778,9.68,1.87,39.56,-999.0,'1111122,1111122,1111122' 
DISL,ioos:station:DISL:DISL:1,2017-05-02T11:00:00Z,30.2513,-88.0778,9.68,1.69,49.34,-999.0,'1111122,1111122,1111122' 
DISL,ioos:station:DISL:DISL:1,2017-05-02T11:30:00Z,30.2513,-88.0778,9.68,2.31,56.0,-999.0,'1111122,1111122,1111122' 
DISL,ioos:station:DISL:DISL:1,2017-05-02T12:00:00Z,30.2513,-88.0778,9.68,2.41,68.78,-999.0,'1111122,1111122,1111122' 
DISL,ioos:station:DISL:DISL:1,2017-05-02T12:30:00Z,30.2513,-88.0778,9.68,2.66,70.83,-999.0,'1111122,1111122,1111122' 
DISL,ioos:station:DISL:DISL:1,2017-05-02T13:00:00Z,30.2513,-88.0778,9.68,2.66,81.7,-999.0,'1111122,1111122,1111122' 
DISL,ioos:station:DISL:DISL:1,2017-05-02T13:30:00Z,30.2513,-88.0778,9.68,2.82,85.5,-999.0,'1111122,1111122,1111122' 
DISL,ioos:station:DISL:DISL:1,2017-05-02T14:00:00Z,30.2513,-88.0778,9.68,2.33,82.3,-999.0,'1111122,1111122,1111122' 
DISL,ioos:station:DISL:DISL:1,2017-05-02T14:30:00Z,30.2513,-88.0778,9.68,2.6,90.2,-999.0,'1111122,1111122,1111122' 
DISL,ioos:station:DISL:DISL:1,2017-05-02T15:00:00Z,30.2513,-88.0778,9.68,2.25,90.4,-999.0,'1111122,1111122,1111122' 
DISL,ioos:station:DISL:DISL:1,2017-05-02T15:30:00Z,30.2513,-88.0778,9.68,1.94,95.9,-999.0,'1111122,1111122,1111122' 
DISL,ioos:station:DISL:DISL:1,2017-05-02T16:00:00Z,30.2513,-88.0778,9.68,1.86,107.4,-999.0,'1111122,1111122,1111122' 
DISL,ioos:station:DISL:DISL:1,2017-05-02T16:30:00Z,30.2513,-88.0778,9.68,2.32,124.8,-999.0,'1111122,1111122,1111122' 
DISL,ioos:station:DISL:DISL:1,2017-05-02T17:00:00Z,30.2513,-88.0778,9.68,2.43,136.6,-999.0,'1111122,1111122,1111122' 
DISL,ioos:station:DISL:DISL:1,2017-05-02T17:30:00Z,30.2513,-88.0778,9.68,2.74,130.4,-999.0,'1111122,1111122,1111122' 
DISL,ioos:station:DISL:DISL:1,2017-05-02T18:00:00Z,30.2513,-88.0778,9.68,2.9,151.5,-999.0,'1111122,1111122,1111122' 
DISL,ioos:station:DISL:DISL:1,2017-05-02T18:30:00Z,30.2513,-88.0778,9.68,2.92,168.8,-999.0,'1111122,1111122,1111122' 
DISL,ioos:station:DISL:DISL:1,2017-05-02T19:00:00Z,30.2513,-88.0778,9.68,2.96,173.9,-999.0,'1111122,1111122,1111122' 
DISL,ioos:station:DISL:DISL:1,2017-05-02T19:30:00Z,30.2513,-88.0778,9.68,3.14,175.1,-999.0,'1111122,1111122,1111122' 
DISL,ioos:station:DISL:DISL:1,2017-05-02T20:00:00Z,30.2513,-88.0778,9.68,2.59,174.3,-999.0,'1111122,1111122,1111122' 
DISL,ioos:station:DISL:DISL:1,2017-05-02T20:30:00Z,30.2513,-88.0778,9.68,2.62,172.7,-999.0,'1111122,1111122,1111122' 
DISL,ioos:station:DISL:DISL:1,2017-05-02T21:00:00Z,30.2513,-88.0778,9.68,2.63,181.6,-999.0,'1111122,1111122,1111122' 
DISL,ioos:station:DISL:DISL:1,2017-05-02T21:30:00Z,30.2513,-88.0778,9.68,1.98,210.7,-999.0,'1111122,1111122,1111122' 
DISL,ioos:station:DISL:DISL:1,2017-05-02T22:00:00Z,30.2513,-88.0778,9.68,2.12,225.7,-999.0,'1111122,1111122,1111122' 
DISL,ioos:station:DISL:DISL:1,2017-05-02T22:30:00Z,30.2513,-88.0778,9.68,2.31,224.0,-999.0,'1111122,1111122,1111122' 
DISL,ioos:station:DISL:DISL:1,2017-05-02T23:00:00Z,30.2513,-88.0778,9.68,2.06,220.1,-999.0,'1111122,1111122,1111122' 
DISL,ioos:station:DISL:DISL:1,2017-05-02T23:30:00Z,30.2513,-88.0778,9.68,2.13,224.9,-999.0,'1111122,1111122,1111122' 
DISL,ioos:station:DISL:DISL:1,2017-05-03T00:00:00Z,30.2513,-88.0778,9.68,1.69,234.5,-999.0,'1111122,1111122,1111122' 
DISL,ioos:station:DISL:DISL:1,2017-05-03T00:30:00Z,30.2513,-88.0778,9.68,1.98,226.6,-999.0,'1111122,1111122,1111122' 
DISL,ioos:station:DISL:DISL:1,2017-05-03T01:00:00Z,30.2513,-88.0778,9.68,1.47,227.1,-999.0,'1111122,1111122,1111122' 
DISL,ioos:station:DISL:DISL:1,2017-05-03T01:30:00Z,30.2513,-88.0778,9.68,1.41,223.5,-999.0,'1111122,1111122,1111122' 
DISL,ioos:station:DISL:DISL:1,2017-05-03T02:00:00Z,30.2513,-88.0778,9.68,1.4,223.7,-999.0,'1111122,1111122,1111122' 
DISL,ioos:station:DISL:DISL:1,2017-05-03T02:30:00Z,30.2513,-88.0778,9.68,1.38,212.4,-999.0,'1111122,1111122,1111122' 
DISL,ioos:station:DISL:DISL:1,2017-05-03T03:00:00Z,30.2513,-88.0778,9.68,1.52,197.3,-999.0,'1111122,1111122,1111122' 
DISL,ioos:station:DISL:DISL:1,2017-05-03T03:30:00Z,30.2513,-88.0778,9.68,1.51,193.0,-999.0,'1111122,1111122,1111122' 
DISL,ioos:station:DISL:DISL:1,2017-05-03T04:00:00Z,30.2513,-88.0778,9.68,1.74,189.3,-999.0,'1111122,1111122,1111122' 
DISL,ioos:station:DISL:DISL:1,2017-05-03T04:30:00Z,30.2513,-88.0778,9.68,1.76,207.2,-999.0,'1111122,1111122,1111122' 
DISL,ioos:station:DISL:DISL:1,2017-05-03T05:30:00Z,30.2513,-88.0778,9.68,2.28,195.3,-999.0,'1111122,1111122,1111122' 
DISL,ioos:station:DISL:DISL:1,2017-05-03T06:00:00Z,30.2513,-88.0778,9.68,1.92,195.0,-999.0,'1111122,1111122,1111122' 
DISL,ioos:station:DISL:DISL:1,2017-05-03T06:30:00Z,30.2513,-88.0778,9.68,1.43,192.7,-999.0,'1111122,1111122,1111122' 
DISL,ioos:station:DISL:DISL:1,2017-05-03T07:00:00Z,30.2513,-88.0778,9.68,0.9,306.1,-999.0,'1111122,1111122,1111122' 
DISL,ioos:station:DISL:DISL:1,2017-05-03T07:30:00Z,30.2513,-88.0778,9.68,0.25,258.8,-999.0,'1111122,1111122,1111122' 
DISL,ioos:station:DISL:DISL:1,2017-05-03T08:00:00Z,30.2513,-88.0778,9.68,0.29,189.8,-999.0,'1111122,1111122,1111122' 
DISL,ioos:station:DISL:DISL:1,2017-05-03T08:30:00Z,30.2513,-88.0778,9.68,1.3,163.6,-999.0,'1111122,1111122,1111122' 
DISL,ioos:station:DISL:DISL:1,2017-05-03T09:00:00Z,30.2513,-88.0778,9.68,1.46,156.6,-999.0,'1111122,1111122,1111122' 
DISL,ioos:station:DISL:DISL:1,2017-05-03T09:30:00Z,30.2513,-88.0778,9.68,1.38,132.4,-999.0,'1111122,1111122,1111122' 
DISL,ioos:station:DISL:DISL:1,2017-05-03T10:00:00Z,30.2513,-88.0778,9.68,2.36,98.3,-999.0,'1111122,1111122,1111122' 
DISL,ioos:station:DISL:DISL:1,2017-05-03T10:30:00Z,30.2513,-88.0778,9.68,3.07,70.39,-999.0,'1111122,1111122,1111122' 
DISL,ioos:station:DISL:DISL:1,2017-05-03T11:00:00Z,30.2513,-88.0778,9.68,3.62,79.89,-999.0,'1111122,1111122,1111122' 
DISL,ioos:station:DISL:DISL:1,2017-05-03T11:30:00Z,30.2513,-88.0778,9.68,4.06,84.4,-999.0,'1111122,1111122,1111122' 
DISL,ioos:station:DISL:DISL:1,2017-05-03T12:00:00Z,30.2513,-88.0778,9.68,4.32,102.0,-999.0,'1111122,1111122,1111122' 
DISL,ioos:station:DISL:DISL:1,2017-05-03T12:30:00Z,30.2513,-88.0778,9.68,4.28,104.6,-999.0,'1111122,1111122,1111122' 
DISL,ioos:station:DISL:DISL:1,2017-05-03T13:00:00Z,30.2513,-88.0778,9.68,4.3,103.4,-999.0,'1111122,1111122,1111122' 
DISL,ioos:station:DISL:DISL:1,2017-05-03T13:30:00Z,30.2513,-88.0778,9.68,5.6,104.1,-999.0,'1111122,1111122,1111122' 
DISL,ioos:station:DISL:DISL:1,2017-05-03T14:00:00Z,30.2513,-88.0778,9.68,6.4,108.4,-999.0,'1111122,1111122,1111122' 
DISL,ioos:station:DISL:DISL:1,2017-05-03T14:30:00Z,30.2513,-88.0778,9.68,7.43,113.1,-999.0,'1111122,1111122,1111122' 
DISL,ioos:station:DISL:DISL:1,2017-05-03T15:00:00Z,30.2513,-88.0778,9.68,6.68,116.6,-999.0,'1111122,1111122,1111122' 
DISL,ioos:station:DISL:DISL:1,2017-05-03T15:30:00Z,30.2513,-88.0778,9.68,7.48,118.5,-999.0,'1111122,1111122,1111122' 
DISL,ioos:station:DISL:DISL:1,2017-05-03T16:00:00Z,30.2513,-88.0778,9.68,6.74,122.6,-999.0,'1111122,1111122,1111122' 
DISL,ioos:station:DISL:DISL:1,2017-05-03T16:30:00Z,30.2513,-88.0778,9.68,6.24,127.7,-999.0,'1111122,1111122,1111122' 
DISL,ioos:station:DISL:DISL:1,2017-05-03T17:00:00Z,30.2513,-88.0778,9.68,6.0,129.4,-999.0,'1111122,1111122,1111122' 
DISL,ioos:station:DISL:DISL:1,2017-05-03T17:30:00Z,30.2513,-88.0778,9.68,6.45,130.8,-999.0,'1111122,1111122,1111122' 
DISL,ioos:station:DISL:DISL:1,2017-05-03T18:00:00Z,30.2513,-88.0778,9.68,6.16,126.1,-999.0,'1111122,1111122,1111122' 
DISL,ioos:station:DISL:DISL:1,2017-05-03T18:30:00Z,30.2513,-88.0778,9.68,4.55,143.6,-999.0,'1111122,1111122,1111122' 
DISL,ioos:station:DISL:DISL:1,2017-05-03T19:00:00Z,30.2513,-88.0778,9.68,4.06,181.3,-999.0,'1111122,1111122,1111122' 
DISL,ioos:station:DISL:DISL:1,2017-05-03T19:30:00Z,30.2513,-88.0778,9.68,5.44,169.3,-999.0,'1111122,1111122,1111122' 
DISL,ioos:station:DISL:DISL:1,2017-05-03T20:00:00Z,30.2513,-88.0778,9.68,8.45,118.2,-999.0,'1111122,1111122,1111122' 
DISL,ioos:station:DISL:DISL:1,2017-05-03T20:30:00Z,30.2513,-88.0778,9.68,6.82,95.3,-999.0,'1111122,1111122,1111122' 
DISL,ioos:station:DISL:DISL:1,2017-05-03T21:00:00Z,30.2513,-88.0778,9.68,5.51,274.9,-999.0,'1111122,1111122,1111122' 
DISL,ioos:station:DISL:DISL:1,2017-05-03T21:30:00Z,30.2513,-88.0778,9.68,3.68,275.5,-999.0,'1111122,1111122,1111122' 
DISL,ioos:station:DISL:DISL:1,2017-05-03T22:00:00Z,30.2513,-88.0778,9.68,4.79,265.2,-999.0,'1111122,1111122,1111122' 
DISL,ioos:station:DISL:DISL:1,2017-05-03T22:30:00Z,30.2513,-88.0778,9.68,8.99,277.8,-999.0,'1111122,1111122,1111122' 
DISL,ioos:station:DISL:DISL:1,2017-05-03T23:00:00Z,30.2513,-88.0778,9.68,2.87,265.3,-999.0,'1111122,1111122,1111122' 
DISL,ioos:station:DISL:DISL:1,2017-05-03T23:30:00Z,30.2513,-88.0778,9.68,6.82,126.5,-999.0,'1111122,1111122,1111122' 
DISL,ioos:station:DISL:DISL:1,2017-05-04T00:00:00Z,30.2513,-88.0778,9.68,14.47,118.5,-999.0,'1111122,1111122,1111122' 
DISL,ioos:station:DISL:DISL:1,2017-05-04T00:30:00Z,30.2513,-88.0778,9.68,12.44,123.6,-999.0,'1111122,1111122,1111122' 
DISL,ioos:station:DISL:DISL:1,2017-05-04T01:00:00Z,30.2513,-88.0778,9.68,9.68,123.5,-999.0,'1111122,1111122,1111122' 
DISL,ioos:station:DISL:DISL:1,2017-05-04T01:30:00Z,30.2513,-88.0778,9.68,9.13,134.0,-999.0,'1111122,1111122,1111122' 
DISL,ioos:station:DISL:DISL:1,2017-05-04T02:00:00Z,30.2513,-88.0778,9.68,9.39,118.8,-999.0,'1111122,1111122,1111122' 
DISL,ioos:station:DISL:DISL:1,2017-05-04T02:30:00Z,30.2513,-88.0778,9.68,8.26,134.0,-999.0,'1111122,1111122,1111122' 
DISL,ioos:station:DISL:DISL:1,2017-05-04T03:00:00Z,30.2513,-88.0778,9.68,8.49,131.5,-999.0,'1111122,1111122,1111122' 
DISL,ioos:station:DISL:DISL:1,2017-05-04T03:30:00Z,30.2513,-88.0778,9.68,8.32,132.1,-999.0,'1111122,1111122,1111122' 
DISL,ioos:station:DISL:DISL:1,2017-05-04T04:00:00Z,30.2513,-88.0778,9.68,9.84,317.0,-999.0,'1111122,1111122,1111122' 
DISL,ioos:station:DISL:DISL:1,2017-05-04T04:30:00Z,30.2513,-88.0778,9.68,8.2,9.33,-999.0,'1111122,1111122,1111122' 
DISL,ioos:station:DISL:DISL:1,2017-05-04T05:30:00Z,30.2513,-88.0778,9.68,7.67,356.6,-999.0,'1111122,1111122,1111122' 
DISL,ioos:station:DISL:DISL:1,2017-05-04T06:00:00Z,30.2513,-88.0778,9.68,5.24,351.1,-999.0,'1111122,1111122,1111122' 
DISL,ioos:station:DISL:DISL:1,2017-05-04T06:30:00Z,30.2513,-88.0778,9.68,10.41,319.3,-999.0,'1111122,1111122,1111122' 
DISL,ioos:station:DISL:DISL:1,2017-05-04T07:00:00Z,30.2513,-88.0778,9.68,4.1,353.9,-999.0,'1111122,1111122,1111122' 
DISL,ioos:station:DISL:DISL:1,2017-05-04T07:30:00Z,30.2513,-88.0778,9.68,5.36,17.63,-999.0,'1111122,1111122,1111122' 
DISL,ioos:station:DISL:DISL:1,2017-05-04T08:00:00Z,30.2513,-88.0778,9.68,8.12,42.78,-999.0,'1111122,1111122,1111122' 
DISL,ioos:station:DISL:DISL:1,2017-05-04T08:30:00Z,30.2513,-88.0778,9.68,5.78,50.61,-999.0,'1111122,1111122,1111122' 
DISL,ioos:station:DISL:DISL:1,2017-05-04T09:00:00Z,30.2513,-88.0778,9.68,5.36,42.04,-999.0,'1111122,1111122,1111122' 
DISL,ioos:station:DISL:DISL:1,2017-05-04T09:30:00Z,30.2513,-88.0778,9.68,5.29,25.17,-999.0,'1111122,1111122,1111122' 
DISL,ioos:station:DISL:DISL:1,2017-05-04T10:00:00Z,30.2513,-88.0778,9.68,6.45,56.07,-999.0,'1111122,1111122,1111122' 
DISL,ioos:station:DISL:DISL:1,2017-05-04T10:30:00Z,30.2513,-88.0778,9.68,6.28,75.71,-999.0,'1111122,1111122,1111122' 
DISL,ioos:station:DISL:DISL:1,2017-05-04T11:00:00Z,30.2513,-88.0778,9.68,5.6,94.1,-999.0,'1111122,1111122,1111122' 
DISL,ioos:station:DISL:DISL:1,2017-05-04T11:30:00Z,30.2513,-88.0778,9.68,7.43,115.6,-999.0,'1111122,1111122,1111122' 
DISL,ioos:station:DISL:DISL:1,2017-05-04T12:00:00Z,30.2513,-88.0778,9.68,9.91,133.7,-999.0,'1111122,1111122,1111122' 
DISL,ioos:station:DISL:DISL:1,2017-05-04T12:30:00Z,30.2513,-88.0778,9.68,11.64,141.3,-999.0,'1111122,1111122,1111122' 
DISL,ioos:station:DISL:DISL:1,2017-05-04T13:00:00Z,30.2513,-88.0778,9.68,5.56,149.0,-999.0,'1111122,1111122,1111122' 
DISL,ioos:station:DISL:DISL:1,2017-05-04T13:30:00Z,30.2513,-88.0778,9.68,4.9,158.5,-999.0,'1111122,1111122,1111122' 
DISL,ioos:station:DISL:DISL:1,2017-05-04T14:00:00Z,30.2513,-88.0778,9.68,3.75,186.6,-999.0,'1111122,1111122,1111122' 
DISL,ioos:station:DISL:DISL:1,2017-05-04T14:30:00Z,30.2513,-88.0778,9.68,4.42,209.8,-999.0,'1111122,1111122,1111122' 
DISL,ioos:station:DISL:DISL:1,2017-05-04T15:00:00Z,30.2513,-88.0778,9.68,4.21,217.9,-999.0,'1111122,1111122,1111122' 
DISL,ioos:station:DISL:DISL:1,2017-05-04T15:30:00Z,30.2513,-88.0778,9.68,3.0,232.3,-999.0,'1111122,1111122,1111122' 
DISL,ioos:station:DISL:DISL:1,2017-05-04T16:00:00Z,30.2513,-88.0778,9.68,3.92,248.0,-999.0,'1111122,1111122,1111122' 
DISL,ioos:station:DISL:DISL:1,2017-05-04T16:30:00Z,30.2513,-88.0778,9.68,5.54,270.1,-999.0,'1111122,1111122,1111122' 
DISL,ioos:station:DISL:DISL:1,2017-05-04T17:00:00Z,30.2513,-88.0778,9.68,3.49,265.8,-999.0,'1111122,1111122,1111122' 
DISL,ioos:station:DISL:DISL:1,2017-05-04T17:30:00Z,30.2513,-88.0778,9.68,2.99,258.9,-999.0,'1111122,1111122,1111122' 
DISL,ioos:station:DISL:DISL:1,2017-05-04T18:00:00Z,30.2513,-88.0778,9.68,2.76,254.0,-999.0,'1111122,1111122,1111122' 
DISL,ioos:station:DISL:DISL:1,2017-05-04T18:30:00Z,30.2513,-88.0778,9.68,3.08,244.2,-999.0,'1111122,1111122,1111122' 
DISL,ioos:station:DISL:DISL:1,2017-05-04T19:00:00Z,30.2513,-88.0778,9.68,3.67,237.3,-999.0,'1111122,1111122,1111122' 
DISL,ioos:station:DISL:DISL:1,2017-05-04T19:30:00Z,30.2513,-88.0778,9.68,3.91,246.6,-999.0,'1111122,1111122,1111122' 
DISL,ioos:station:DISL:DISL:1,2017-05-04T20:00:00Z,30.2513,-88.0778,9.68,9.26,289.5,-999.0,'1111122,1111122,1111122' 
DISL,ioos:station:DISL:DISL:1,2017-05-04T20:30:00Z,30.2513,-88.0778,9.68,7.7,281.2,-999.0,'1111122,1111122,1111122' 
DISL,ioos:station:DISL:DISL:1,2017-05-04T21:00:00Z,30.2513,-88.0778,9.68,9.03,289.2,-999.0,'1111122,1111122,1111122' 
DISL,ioos:station:DISL:DISL:1,2017-05-04T21:30:00Z,30.2513,-88.0778,9.68,9.34,293.3,-999.0,'1111122,1111122,1111122' 
DISL,ioos:station:DISL:DISL:1,2017-05-04T22:00:00Z,30.2513,-88.0778,9.68,9.39,289.8,-999.0,'1111122,1111122,1111122' 
DISL,ioos:station:DISL:DISL:1,2017-05-04T22:30:00Z,30.2513,-88.0778,9.68,9.73,288.5,-999.0,'1111122,1111122,1111122' 
DISL,ioos:station:DISL:DISL:1,2017-05-04T23:00:00Z,30.2513,-88.0778,9.68,10.56,298.0,-999.0,'1111122,1111122,1111122' 
DISL,ioos:station:DISL:DISL:1,2017-05-04T23:30:00Z,30.2513,-88.0778,9.68,10.03,301.4,-999.0,'1111122,1111122,1111122' 
DISL,ioos:station:DISL:DISL:1,2017-05-05T00:00:00Z,30.2513,-88.0778,9.68,10.08,298.8,-999.0,'1111122,1111122,1111122' 
DISL,ioos:station:DISL:DISL:1,2017-05-05T00:30:00Z,30.2513,-88.0778,9.68,11.32,311.2,-999.0,'1111122,1111122,1111122' 
DISL,ioos:station:DISL:DISL:1,2017-05-05T01:00:00Z,30.2513,-88.0778,9.68,11.54,294.1,-999.0,'1111122,1111122,1111122' 
DISL,ioos:station:DISL:DISL:1,2017-05-05T01:30:00Z,30.2513,-88.0778,9.68,10.32,303.3,-999.0,'1111122,1111122,1111122' 
DISL,ioos:station:DISL:DISL:1,2017-05-05T02:00:00Z,30.2513,-88.0778,9.68,9.95,299.9,-999.0,'1111122,1111122,1111122' 
DISL,ioos:station:DISL:DISL:1,2017-05-05T02:30:00Z,30.2513,-88.0778,9.68,12.15,294.7,-999.0,'1111122,1111122,1111122' 
DISL,ioos:station:DISL:DISL:1,2017-05-05T03:00:00Z,30.2513,-88.0778,9.68,11.91,303.9,-999.0,'1111122,1111122,1111122' 
DISL,ioos:station:DISL:DISL:1,2017-05-05T03:30:00Z,30.2513,-88.0778,9.68,9.32,303.0,-999.0,'1111122,1111122,1111122' 
DISL,ioos:station:DISL:DISL:1,2017-05-05T04:00:00Z,30.2513,-88.0778,9.68,10.69,302.9,-999.0,'1111122,1111122,1111122' 
DISL,ioos:station:DISL:DISL:1,2017-05-05T04:30:00Z,30.2513,-88.0778,9.68,12.62,310.5,-999.0,'1111122,1111122,1111122' 
DISL,ioos:station:DISL:DISL:1,2017-05-05T05:30:00Z,30.2513,-88.0778,9.68,13.63,311.3,-999.0,'1111122,1111122,1111122' 
DISL,ioos:station:DISL:DISL:1,2017-05-05T06:00:00Z,30.2513,-88.0778,9.68,11.25,302.2,-999.0,'1111122,1111122,1111122' 
DISL,ioos:station:DISL:DISL:1,2017-05-05T06:30:00Z,30.2513,-88.0778,9.68,10.53,301.9,-999.0,'1111122,1111122,1111122' 